[[[{"header":{"parameterUnit":"kt","parameterCategory":2,"dx":1,"dy":1,"la1":30.253999710083008,"la2":30.299108505249023,"lo1":-89.0895004272461,"lo2":-89.04439544677734,"nx":28,"ny":28,"refTime":"2022-10-11T21:00:00:Z","depth":0,"parameterNumber":1,"parameterNumberName":"U-component_of_WINDS"},"data":[-7.7353,-7.7521,-7.7542,-7.7746,-7.7799,-7.7942,-7.8,-7.8078,-7.8146,-7.8322,-7.8428,-7.8468,-7.8545,-7.8679,-7.8796,-7.8811,-7.886,-7.8907,-7.8917,-7.8685,-7.8654,-7.8625,-7.8584,-7.8917,-7.8918,-7.9153,-7.9155,-7.9157,-7.7192,-7.7246,-7.7358,-7.748,-7.7578,-7.7546,-7.7642,-7.7726,-7.7855,-7.7939,-7.8042,-7.82,-7.8327,-7.8388,-7.8515,-7.8599,-7.859,-7.8632,-7.8625,-7.8638,-7.8391,-7.8348,-7.8636,-7.8636,-7.8636,-7.8636,-7.8636,-7.8636,-7.6904,-7.7003,-7.7087,-7.7208,-7.7275,-7.7358,-7.7457,-7.75,-7.7611,-7.7741,-7.7743,-7.7891,-7.7979,-7.8139,-7.8198,-7.8316,-7.8273,-7.8324,-7.8337,-7.835,-7.8362,-7.8024,-7.8338,-7.8337,-7.8337,-7.8336,-7.8336,0,-7.6698,-7.6708,-7.6813,-7.6928,-7.7017,-7.7107,-7.7192,-7.7254,-7.7279,-7.737,-7.7503,-7.7583,-7.7743,-7.7872,-7.7993,-7.8043,-7.8018,-7.8017,-7.8052,-7.8052,-7.804,-7.805,-7.7648,-7.8006,-7.8004,-7.8002,-7.8,-7.7999,-7.6409,-7.652,-7.6615,-7.6688,-7.6737,-7.6854,-7.6928,-7.694,-7.7019,-7.7127,-7.7215,-7.7343,-7.7445,-7.7657,-7.7705,-7.7825,-7.7813,-7.7949,-7.7831,-7.783,-7.7817,-7.781,-7.7823,-7.797,-7.7974,-7.7977,-7.7979,0,-7.6245,-7.6271,-7.645,-7.653,-7.6555,-7.6673,-7.6743,-7.6843,-7.6871,-7.7014,-7.7048,-7.7093,-7.7223,-7.7249,-7.7403,-7.7413,-7.7616,-7.7601,-7.7587,-7.7585,-7.771,-7.7698,-7.8106,-7.8161,-7.7816,-7.7819,-7.7822,0,-7.6007,-7.6153,-7.6184,-7.6286,-7.6451,-7.6455,-7.6619,-7.6658,-7.6728,-7.684,-7.6813,-7.6919,-7.6933,-7.7045,-7.7059,-7.7229,-7.7257,-7.7275,-7.7277,-7.7277,-7.7275,-7.7317,-7.73,-7.7274,-7.7272,-7.727,-7.7269,0,-7.5746,-7.5931,-7.6097,-7.6143,-7.6241,-7.632,-7.6365,-7.6441,-7.6513,-7.661,-7.6656,-7.677,-7.6832,-7.6922,-7.6938,-7.6857,-7.7145,-7.7037,-7.7163,-7.7163,-7.7222,-7.7218,-7.7575,-7.7266,-7.7265,-7.7265,-7.7264,0,-7.5555,-7.5649,-7.5884,-7.5965,-7.6013,-7.6122,-7.6231,-7.633,-7.6413,-7.6427,-7.6503,-7.6486,-7.6633,-7.6525,-7.673,-7.6621,-7.6685,-7.6715,-7.6724,-7.6736,-7.6614,-7.6812,-7.715,-7.7186,-7.6754,-7.6749,-7.6746,0,-7.5251,-7.5492,-7.5494,-7.5718,-7.5832,-7.579,-7.5913,-7.5985,-7.6013,-7.6116,-7.6148,-7.6265,-7.6189,-7.6229,-7.6328,-7.6365,-7.6508,-7.6347,-7.65,-7.6505,-7.6479,-7.679,-7.6833,-7.7073,-7.6691,-7.6697,-7.6701,0,-7.5015,-7.5126,-7.5165,-7.5218,-7.5309,-7.5403,-7.5543,-7.5658,-7.5726,-7.5809,-7.5927,-7.6091,-7.6042,-7.6106,-7.6101,-7.6203,-7.6412,-7.6134,-7.6136,-7.6184,-7.6665,-7.6706,-7.6746,-7.6387,-7.6394,-7.6399,-7.6658,0,-7.4725,-7.4845,-7.4951,-7.5062,-7.5137,-7.5276,-7.5294,-7.5372,-7.5359,-7.5382,-7.5556,-7.5618,-7.5735,-7.5785,-7.5772,-7.5994,-7.596,-7.5904,-7.5797,-7.6002,-7.6088,-7.6122,-7.5669,-7.5666,-7.5663,-7.5661,0,0,-7.4426,-7.4597,-7.459,-7.4722,-7.4785,-7.4735,-7.4881,-7.4937,-7.505,-7.5096,-7.5037,-7.5276,-7.5327,-7.5536,-7.5601,-7.5648,-7.569,-7.5615,-7.5904,-7.5931,-7.5956,-7.6048,-7.6084,-7.5656,-7.5656,-7.5655,-7.5654,0,-7.4321,-7.437,-7.4513,-7.457,-7.4652,-7.4667,-7.4703,-7.4775,-7.4796,-7.4962,-7.4918,-7.5024,-7.5211,-7.5273,-7.5329,-7.5592,-7.5552,-7.5627,-7.5762,-7.5878,-7.5908,-7.5935,-7.6031,-7.6065,-7.5648,-7.5648,-7.5648,0,-7.4092,-7.4143,-7.4212,-7.4348,-7.4401,-7.4517,-7.441,-7.4536,-7.4624,-7.4559,-7.4724,-7.4761,-7.4843,-7.5036,-7.5123,-7.5071,-7.5426,-7.5315,-7.5332,-7.5341,-7.5454,-7.549,-7.5523,-7.5094,-7.5092,-7.509,0,0,-7.3999,-7.4108,-7.4163,-7.4326,-7.4363,-7.4386,-7.4448,-7.4439,-7.4511,-7.454,-7.4583,-7.4657,-7.4767,-7.4838,-7.4941,-7.515,-7.5168,-7.5246,-7.5272,-7.5294,-7.5314,-7.5432,-7.5469,-7.5083,-7.5082,-7.5082,0,0,-7.3954,-7.4022,-7.3994,-7.4184,-7.4254,-7.4318,-7.4419,-7.4386,-7.4478,-7.4464,-7.4455,-7.4474,-7.4654,-7.469,-7.4587,-7.4903,-7.4798,-7.4823,-7.4872,-7.4905,-7.4931,-7.4918,-7.4484,0,0,0,0,0,-7.3851,-7.4014,-7.3988,-7.4021,-7.419,-7.4334,-7.4355,-7.435,-7.4276,-7.4357,-7.4388,-7.4339,-7.4633,-7.4542,-7.4577,-7.469,-7.4985,-7.5002,-7.5019,-7.5131,-7.5166,-7.5195,0,0,0,0,0,0,-7.3864,-7.3905,-7.3983,-7.4054,-7.4092,-7.4327,-7.4202,-7.4205,-7.4267,-7.4256,-7.4335,-7.4342,-7.4341,-7.4524,-7.4555,-7.4663,-7.4473,-7.4992,-7.5006,-7.502,-7.5143,-7.5172,-7.5196,0,0,0,0,0,-7.3875,-7.3908,-7.4179,-7.4052,-7.4085,-7.4117,-7.4195,-7.4197,-7.4245,-7.4292,-7.4297,-7.4235,-7.4344,-7.437,-7.4543,-7.4649,-7.4451,-7.4463,-7.5001,-7.5013,-7.5023,-7.5157,0,0,0,0,0,0,-7.3882,-7.3911,-7.4185,-7.4195,-7.3988,-7.4104,-7.4121,-7.419,-7.4277,-7.4284,-7.4191,-7.4181,-7.4348,-7.4368,-7.4388,-7.4645,-7.4433,-7.4445,-7.4453,-7.501,-7.5019,-7.5027,0,0,0,0,0,0,-7.3893,-7.392,-7.419,-7.411,-7.411,-7.4092,-7.4107,-7.4252,-7.4279,-7.4171,-7.4165,-7.4185,-7.4318,-7.4367,-7.4383,-7.4609,-7.442,-7.4431,-7.4439,-7.4444,-7.5017,-7.5025,0,0,0,0,0,0,-7.3904,-7.3927,-7.4107,-7.4108,-7.4108,-7.4219,-7.4219,-7.4393,-7.4208,-7.4168,-7.4191,-7.4184,-7.4319,-7.4334,-7.4379,-7.4599,-7.4606,-7.442,-7.4428,-7.4433,-7.4437,0,0,0,0,0,0,0,-7.3914,-7.3761,-7.4126,-7.4106,-7.4106,-7.4287,-7.429,-7.4293,-7.4206,-7.42,-7.4193,-7.4187,-7.4354,-7.4367,-7.438,-7.4591,0,0,-7.4419,-7.4425,0,0,0,0,0,0,0,0,-7.3751,-7.3758,-7.4126,-7.4128,-7.413,-7.4288,-7.429,-7.4292,-7.4205,-7.42,-7.4194,-7.4189,-7.4358,-7.4368,-7.4378,0,0,0,0,0,0,0,0,0,0,0,0,0,0,0,-7.4126,-7.4128,0,-7.4288,-7.429,-7.4291,-7.4204,-7.42,-7.4196,-7.4191,-7.4361,-7.4369,-7.4377,0,0,0,0,0,0,0,0,0,0,0,0,0,0,0,0,0,0,0,0,0,0,0,0,0,0,0,0,0,0,0,0,0,0,0,0,0,0,0,0,0,0,0,0,0,0,0,0,0,0,0,0,0,0,0,0,0,0,0,0,0,0,0,0,0,0,0,0,0]}],[{"header":{"parameterUnit":"kt","parameterCategory":2,"dx":1,"dy":1,"la1":30.253999710083008,"la2":30.299108505249023,"lo1":-89.0895004272461,"lo2":-89.04439544677734,"nx":28,"ny":28,"refTime":"2022-10-11T21:00:00:Z","depth":0,"parameterNumber":2,"parameterNumberName":"V-component_of_WINDS"},"data":[2.7889,2.7836,2.7891,2.7854,2.7897,2.7881,2.7892,2.7912,2.7941,2.7926,2.7927,2.7974,2.8023,2.8035,2.8037,2.8058,2.8054,2.7997,2.803,2.824,2.8273,2.8304,2.8321,2.7996,2.7995,2.7806,2.7804,2.7803,2.8042,2.8084,2.8081,2.8114,2.8111,2.82,2.8233,2.8224,2.8206,2.8241,2.8245,2.8235,2.8233,2.8302,2.8309,2.8283,2.8324,2.8281,2.8283,2.8289,2.8516,2.8533,2.8248,2.8248,2.8248,2.8248,2.8248,2.8248,2.8335,2.83,2.8353,2.8349,2.8381,2.8402,2.8377,2.8438,2.8433,2.8448,2.8512,2.8492,2.8535,2.8568,2.8591,2.8576,2.8632,2.8601,2.8593,2.8584,2.8567,2.8834,2.8579,2.858,2.8581,2.8582,2.8583,0,2.8565,2.8614,2.8614,2.863,2.863,2.8647,2.8671,2.8658,2.8776,2.8766,2.8757,2.876,2.8766,2.8762,2.8779,2.881,2.8897,2.8912,2.8891,2.8859,2.883,2.8845,2.9212,2.8918,2.8921,2.8923,2.8925,2.8926,2.8864,2.8817,2.8898,2.889,2.8918,2.8902,2.8905,2.9013,2.901,2.9054,2.9016,2.9014,2.9018,2.8991,2.9058,2.9061,2.9103,2.8985,2.9103,2.9077,2.9101,2.9102,2.9099,2.8959,2.8955,2.8951,2.8949,0,2.9028,2.9117,2.9061,2.9145,2.9165,2.9108,2.918,2.9148,2.9209,2.9173,2.9171,2.9265,2.9252,2.934,2.9341,2.9386,2.9293,2.9334,2.928,2.9293,2.9196,2.9204,2.8867,2.8829,2.9168,2.9164,2.9162,0,2.9317,2.925,2.9388,2.935,2.9279,2.939,2.9316,2.9362,2.9402,2.9375,2.9491,2.9462,2.9578,2.9561,2.9628,2.9567,2.9567,2.9598,2.9616,2.9587,2.9583,2.9584,2.9599,2.9659,2.9661,2.9663,2.9664,0,2.9563,2.9557,2.9497,2.951,2.9591,2.9559,2.9591,2.9637,2.9637,2.965,2.9651,2.9658,2.966,2.9663,2.9749,2.9826,2.9676,2.98,2.9708,2.9705,2.9668,2.9669,2.9351,2.9666,2.9666,2.9667,2.9668,0,2.981,2.9825,2.9723,2.9795,2.9789,2.9747,2.9764,2.9749,2.9788,2.9829,2.984,2.9927,2.9881,2.9997,2.9936,3.0012,3.0008,3.0034,3.0029,3.0028,3.0156,2.9964,2.9654,2.9625,3.003,3.0033,3.0036,0,3.0067,2.9989,3.0085,2.9984,2.9961,3.0095,3.0051,3.0083,3.0134,3.0119,3.0175,3.0156,3.0261,3.0267,3.0226,3.0281,3.0181,3.0297,3.0271,3.0269,3.0257,2.9973,2.9905,2.9713,3.0076,3.0072,3.0069,0,3.0277,3.0379,3.0353,3.0374,3.0435,3.0414,3.0363,3.0371,3.0356,3.0378,3.0337,3.0312,3.0391,3.0398,3.0469,3.042,3.0252,3.051,3.0513,3.046,3.0103,3.0039,3.0006,3.0309,3.0305,3.0301,3.01,0,3.0631,3.0603,3.0541,3.0578,3.0577,3.0518,3.0614,3.06,3.067,3.0725,3.0666,3.0711,3.0714,3.07,3.0766,3.0627,3.0663,3.0747,3.0865,3.0678,3.0614,3.0588,3.0953,3.0957,3.096,3.0963,0,0,3.0854,3.0817,3.0922,3.0878,3.0883,3.1023,3.0952,3.0972,3.1008,3.1008,3.1076,3.1045,3.1078,3.0995,3.0944,3.0945,3.0928,3.0989,3.0766,3.0744,3.0723,3.0653,3.0625,3.0969,3.097,3.0971,3.0972,0,3.1004,3.104,3.097,3.0998,3.1042,3.1104,3.1087,3.1154,3.1185,3.1128,3.1241,3.1216,3.1186,3.1207,3.1213,3.1003,3.1087,3.0996,3.0852,3.0797,3.077,3.0747,3.0672,3.0644,3.0981,3.098,3.098,0,3.1228,3.128,3.1256,3.1276,3.1305,3.1275,3.1425,3.1386,3.1364,3.1514,3.1454,3.1491,3.1525,3.1434,3.1397,3.1457,3.1226,3.1314,3.1295,3.1292,3.1243,3.1211,3.1182,3.1562,3.1563,3.1565,0,0,3.1344,3.1319,3.1406,3.1315,3.1325,3.1417,3.141,3.1479,3.151,3.1521,3.157,3.1594,3.1579,3.1565,3.1555,3.1442,3.1457,3.1382,3.1355,3.1332,3.1316,3.1261,3.1229,3.1571,3.1571,3.1572,0,0,3.1398,3.1498,3.1564,3.147,3.1497,3.1575,3.1514,3.1596,3.1597,3.1614,3.1725,3.1736,3.1653,3.1683,3.1757,3.1599,3.1714,3.1698,3.1582,3.1548,3.1522,3.1515,3.1913,0,0,0,0,0,3.16,3.1487,3.1545,3.1544,3.1566,3.1542,3.1546,3.1637,3.1719,3.1669,3.1723,3.1814,3.1746,3.1814,3.1809,3.1725,3.1652,3.1638,3.1624,3.1448,3.1412,3.1382,0,0,0,0,0,0,3.1601,3.1599,3.1549,3.162,3.1626,3.1548,3.1706,3.1727,3.1727,3.1745,3.1801,3.1816,3.1891,3.1823,3.1817,3.1735,3.1915,3.1646,3.1634,3.1623,3.1436,3.1406,3.1381,0,0,0,0,0,3.1601,3.16,3.1612,3.1622,3.1627,3.1722,3.1711,3.173,3.1731,3.1814,3.1832,3.18,3.1886,3.1888,3.182,3.1736,3.1919,3.1917,3.1639,3.1629,3.162,3.1421,0,0,0,0,0,0,3.1602,3.1617,3.1615,3.162,3.1673,3.1729,3.1741,3.1732,3.1801,3.1818,3.1818,3.1832,3.1882,3.1884,3.1884,3.1731,3.1923,3.1921,3.1919,3.1631,3.1624,3.1617,0,0,0,0,0,0,3.1618,3.162,3.1618,3.1676,3.1689,3.1734,3.1745,3.1699,3.18,3.1802,3.1816,3.1824,3.188,3.188,3.1881,3.1806,3.1926,3.1924,3.1922,3.1921,3.1625,3.1619,0,0,0,0,0,0,3.1621,3.1622,3.1676,3.1685,3.1696,3.1758,3.1695,3.1711,3.1854,3.1797,3.1869,3.1876,3.1873,3.1876,3.1878,3.1801,3.1805,3.1926,3.1924,3.1923,3.1923,0,0,0,0,0,0,0,3.1622,3.1592,3.1587,3.1692,3.1703,3.1665,3.1667,3.1668,3.1855,3.1861,3.1867,3.1873,3.194,3.1938,3.1935,3.1798,0,0,3.1926,3.1925,0,0,0,0,0,0,0,0,3.1593,3.1592,3.1587,3.1588,3.1589,3.1666,3.1667,3.1668,3.1856,3.1861,3.1866,3.187,3.194,3.1937,3.1935,0,0,0,0,0,0,0,0,0,0,0,0,0,0,0,3.1587,3.1588,0,3.1666,3.1667,3.1667,3.1857,3.1861,3.1865,3.1869,3.1939,3.1937,3.1935,0,0,0,0,0,0,0,0,0,0,0,0,0,0,0,0,0,0,0,0,0,0,0,0,0,0,0,0,0,0,0,0,0,0,0,0,0,0,0,0,0,0,0,0,0,0,0,0,0,0,0,0,0,0,0,0,0,0,0,0,0,0,0,0,0,0,0,0,0]}]]]